Retour au catalogue

FENGYUN 1C DEB

ActifPO
NORAD 33625·DEBRIS·🇨🇳 China

Lancé May 10, 1999 depuis Taiyuan Satellite Launch Center

Loading…

Prochains Passages (prochaines 24 heures)

TLE

VieillissantSource: Space-Track

Époque: Sep 5, 2026, 19:18 UTC

1 33625U 99025DDJ 26248.80457551  .00001643  00000-0  23084-3 0  9995
2 33625  98.6423  16.7719 0215506  28.1796 333.0871 14.64272761652958

Suivez FENGYUN 1C DEB en temps réel avec AllMySat

Download on the App Store